Location: La Pernelle
(49.6188°N, 1.2999°W)
Time: 03:53:14
(UTC+00:00)

NOSS 3-2 (A) - Pass Details

Date: 24 October 2021
Orbit: 771 x 1437 km, 63.4° (Epoch: 21 November)

Event Time Altitude Azimuth Distance (km) Brightness Sun altitude
Rises 21:45:05 0° 316° (NW) 3,947 7.4 -44.6°
Reaches altitude 10° 21:47:39 10° 313° (NW) 3,075 6.7 -44.9°
Enters shadow 21:51:15 32° 301° (WNW) 1,989 5.3 -45.3°
